Location: Tr�vern
(48.0333°N, 4.6000°W)
Time: 07:39:56
(UTC+00:00)

Lacrosse 5 - Pass Details

Date: 14 July 2020
Orbit: 717 x 720 km, 57.0° (Epoch: 02 August)

Event Time Altitude Azimuth Distance (km) Brightness Sun altitude
Rises 03:31:08 0° 284° (WNW) 3,126 4.9 -8.8°
Reaches altitude 10° 03:33:47 10° 295° (WNW) 2,206 4.2 -8.5°
Maximum altitude 03:38:14 30° 357° (N) 1,286 3.7 -7.9°
Drops below altitude 10° 03:42:42 10° 58° (ENE) 2,208 6.0 -7.4°
Sets 03:45:21 0° 69° (ENE) 3,130 6.6 -7.1°
